Showing default

DRAGRACER 2(AUGURY), 46955

Orbit data source: Space-Track

DRAGRACER 2(AUGURY), 46955 is a payload satellite owned by TriSept (US) in SSO that was launched on Fri, 20 Nov 2020 UTC via an ELECTRON launch vehicle from the Rocket Lab Launch Complex (RLLC). Payload-class satellites include a variety of spacecraft equipped with specific instruments for various scientific and technological missions. These include communications satellites like Starlink; space stations such as the ISS; scientific satellites like the Hubble; Earth observation satellites from companies like Planet Labs, Umbra, and HawkEye 360; GPS; miniature CubeSats for education and research; and military/defense satellites.

Loading next visibility...
Identifier
46955, 2020-085AC
Orbit
SSO
Country
Flag of USUS
Related business
Manufacturer
Millenium ES
Mission
Operational Commercial Technology
Bus & Motor
CUBESAT 6U, Unknown motor
Mass
12 kg wet, 12 kg dry
Launch date (UTC)
2020-11-20 (6 years ago)
Launch vehicle
ELECTRON
Launch site
Rocket Lab Launch Complex (RLLC)
Object type
Payload
Rocket body
Debris
Shape & HBR
Box, Unknown HBR
Radar Cross Section
0.080 m², Medium (>0.1 m² and < 1m²)

Expand to show TLE details & history
Last TLE update: 10 hours ago

TLE from 10 hours ago
0 DRAGRACER 2(AUGURY)
1 46955U 20085AC  26165.09978344  .00038367  00000-0  30825-3 0  9996
2 46955  97.5791   1.0351 0003376 266.3039  93.7837 15.70890438311385
Epoch: 2026-06-14T02:23Z
TLE epoch observation values (Epoch: 2026-06-14T02:23:41.289Z)
Latitude
-0.00001°
Longitude
62.70769°
Altitude
359.656 km
Speed
7.693 km/s
True Right ascension
00h 04m 08s
True Declination
0° 00' 00"
Sunlit
Object was in daylight at epoch
Visualization orbit readout
Latitude
Unknown
Longitude
Unknown
Altitude
Unknown
Speed
Unknown
Apparent Right ascension
Unknown
Apparent Declination
Unknown
Sunlit
N/A
Visualization observer readout
Local Sidereal Time
22:45:34
Azimuth
Unknown
Elevation
Unknown
Doppler factor
Unknown
Orbital elements
Apogee altitude
355.529 km
Perigee altitude
350.984 km
Semi-major axis
6,731.394 km
Eccentricity
0.00034
Inclination
97.5791°
RAAN
1.0351°
Arg. of periapsis
266.3039°
True anomaly
93.8223°
Mean anomaly
93.7837°
Eccentric anomaly
93.803°
Mean motion
3.92994 °/min
Orbital period
91.6 mins
BSTAR
0.00030825
Loading maneuver chart data...
Computing Atmospheric mass density...

Documentation

Showing up to 5 results
|